Location: Aydie
(43.5695°N, 0.1043°W)
Time: 07:55:54
(UTC+00:00)

Cosmos 1400 Rocket - Pass Details

Date: 17 November 2025
Orbit: 476 x 513 km, 81.1° (Epoch: 13 December)

Event Time Altitude Azimuth Distance (km) Brightness Sun altitude
Rises 17:24:25 0° 153° (SSE) 2,619 6.2 -9.4°
Reaches altitude 10° 17:27:01 10° 134° (SE) 1,735 5.1 -9.9°
Maximum altitude 17:29:41 18° 90° (E) 1,294 4.1 -10.3°
Enters shadow 17:31:18 14° 59° (ENE) 1,473 4.4 -10.6°
